#datetime,building,power
2022-08-29T00:00:00,mnr,6.70
2022-08-29T00:01:00,mnr,6.78
2022-08-29T00:02:00,mnr,6.82
2022-08-29T00:03:00,mnr,6.87
2022-08-29T00:04:00,mnr,6.80
2022-08-29T00:05:00,mnr,6.77
2022-08-29T00:06:00,mnr,6.64
2022-08-29T00:07:00,mnr,6.70
2022-08-29T00:08:00,mnr,6.76
2022-08-29T00:09:00,mnr,6.76
2022-08-29T00:10:00,mnr,6.79
2022-08-29T00:11:00,mnr,6.93
2022-08-29T00:12:00,mnr,6.64
2022-08-29T00:13:00,mnr,6.60
2022-08-29T00:14:00,mnr,6.66
2022-08-29T00:15:00,mnr,6.72
2022-08-29T00:16:00,mnr,7.41
2022-08-29T00:17:00,mnr,6.72
2022-08-29T00:18:00,mnr,6.79
2022-08-29T00:19:00,mnr,6.73
2022-08-29T00:20:00,mnr,6.71
2022-08-29T00:21:00,mnr,6.65
2022-08-29T00:22:00,mnr,6.62
2022-08-29T00:23:00,mnr,7.30
2022-08-29T00:24:00,mnr,6.65
2022-08-29T00:25:00,mnr,6.56
2022-08-29T00:26:00,mnr,6.50
2022-08-29T00:27:00,mnr,6.51
2022-08-29T00:28:00,mnr,7.23
2022-08-29T00:29:00,mnr,6.52
2022-08-29T00:30:00,mnr,6.54
2022-08-29T00:31:00,mnr,6.54
2022-08-29T00:32:00,mnr,6.56
2022-08-29T00:33:00,mnr,6.61
2022-08-29T00:34:00,mnr,6.51
2022-08-29T00:35:00,mnr,6.54
2022-08-29T00:36:00,mnr,6.61
2022-08-29T00:37:00,mnr,6.92
2022-08-29T00:38:00,mnr,6.80
2022-08-29T00:39:00,mnr,6.49
2022-08-29T00:40:00,mnr,6.51
2022-08-29T00:41:00,mnr,6.50
2022-08-29T00:42:00,mnr,6.54
2022-08-29T00:43:00,mnr,6.52
2022-08-29T00:44:00,mnr,7.42
2022-08-29T00:45:00,mnr,8.18
2022-08-29T00:46:00,mnr,8.23
2022-08-29T00:47:00,mnr,8.34
2022-08-29T00:48:00,mnr,8.97
2022-08-29T00:49:00,mnr,8.31
2022-08-29T00:50:00,mnr,8.28
2022-08-29T00:51:00,mnr,8.32
2022-08-29T00:52:00,mnr,7.65
2022-08-29T00:53:00,mnr,7.69
2022-08-29T00:54:00,mnr,7.45
2022-08-29T00:55:00,mnr,7.46
2022-08-29T00:56:00,mnr,7.49
2022-08-29T00:57:00,mnr,7.52
2022-08-29T00:58:00,mnr,7.53
2022-08-29T00:59:00,mnr,7.47
2022-08-29T01:00:00,mnr,7.48
2022-08-29T01:01:00,mnr,7.95
2022-08-29T01:02:00,mnr,8.09
2022-08-29T01:03:00,mnr,7.70
2022-08-29T01:04:00,mnr,7.86
2022-08-29T01:05:00,mnr,7.81
2022-08-29T01:06:00,mnr,8.50
2022-08-29T01:07:00,mnr,8.33
2022-08-29T01:08:00,mnr,7.85
2022-08-29T01:09:00,mnr,7.93
2022-08-29T01:10:00,mnr,7.92
2022-08-29T01:11:00,mnr,8.49
2022-08-29T01:12:00,mnr,7.83
2022-08-29T01:13:00,mnr,7.79
2022-08-29T01:14:00,mnr,7.86
2022-08-29T01:15:00,mnr,7.86
2022-08-29T01:16:00,mnr,8.42
2022-08-29T01:17:00,mnr,8.00
2022-08-29T01:18:00,mnr,7.86
2022-08-29T01:19:00,mnr,8.01
2022-08-29T01:20:00,mnr,8.35
2022-08-29T01:21:00,mnr,7.82
2022-08-29T01:22:00,mnr,7.86
2022-08-29T01:23:00,mnr,7.87
2022-08-29T01:24:00,mnr,8.10
2022-08-29T01:25:00,mnr,7.78
2022-08-29T01:26:00,mnr,7.81
2022-08-29T01:27:00,mnr,7.78
2022-08-29T01:28:00,mnr,7.70
2022-08-29T01:29:00,mnr,7.78
2022-08-29T01:30:00,mnr,7.83
2022-08-29T01:31:00,mnr,7.74
2022-08-29T01:32:00,mnr,7.75
2022-08-29T01:33:00,mnr,7.75
2022-08-29T01:34:00,mnr,7.67
2022-08-29T01:35:00,mnr,7.50
2022-08-29T01:36:00,mnr,7.52
2022-08-29T01:37:00,mnr,7.66
2022-08-29T01:38:00,mnr,7.50
2022-08-29T01:39:00,mnr,7.58
2022-08-29T01:40:00,mnr,7.63
2022-08-29T01:41:00,mnr,7.66
2022-08-29T01:42:00,mnr,7.74
2022-08-29T01:43:00,mnr,7.70
2022-08-29T01:44:00,mnr,7.66
2022-08-29T01:45:00,mnr,7.69
2022-08-29T01:46:00,mnr,7.83
2022-08-29T01:47:00,mnr,9.24
2022-08-29T01:48:00,mnr,9.20
2022-08-29T01:49:00,mnr,9.72
2022-08-29T01:50:00,mnr,8.71
2022-08-29T01:51:00,mnr,8.78
2022-08-29T01:52:00,mnr,8.67
2022-08-29T01:53:00,mnr,8.68
2022-08-29T01:54:00,mnr,8.59
2022-08-29T01:55:00,mnr,8.60
2022-08-29T01:56:00,mnr,8.63
2022-08-29T01:57:00,mnr,8.55
2022-08-29T01:58:00,mnr,8.53
2022-08-29T01:59:00,mnr,8.64
2022-08-29T02:00:00,mnr,8.60
2022-08-29T02:01:00,mnr,8.48
2022-08-29T02:02:00,mnr,8.72
2022-08-29T02:03:00,mnr,8.28
2022-08-29T02:04:00,mnr,8.37
2022-08-29T02:05:00,mnr,8.40
2022-08-29T02:06:00,mnr,8.39
2022-08-29T02:07:00,mnr,8.32
2022-08-29T02:08:00,mnr,9.52
2022-08-29T02:09:00,mnr,8.59
2022-08-29T02:10:00,mnr,8.26
2022-08-29T02:11:00,mnr,8.43
2022-08-29T02:12:00,mnr,8.78
2022-08-29T02:13:00,mnr,8.75
2022-08-29T02:14:00,mnr,8.76
2022-08-29T02:15:00,mnr,8.77
2022-08-29T02:16:00,mnr,8.83
2022-08-29T02:17:00,mnr,9.47
2022-08-29T02:18:00,mnr,8.28
2022-08-29T02:19:00,mnr,8.70
2022-08-29T02:20:00,mnr,8.03
2022-08-29T02:21:00,mnr,8.44
2022-08-29T02:22:00,mnr,7.90
2022-08-29T02:23:00,mnr,7.90
2022-08-29T02:24:00,mnr,7.97
2022-08-29T02:25:00,mnr,9.11
2022-08-29T02:26:00,mnr,8.07
2022-08-29T02:27:00,mnr,7.94
2022-08-29T02:28:00,mnr,8.58
2022-08-29T02:29:00,mnr,8.23
2022-08-29T02:30:00,mnr,7.85
2022-08-29T02:31:00,mnr,7.82
2022-08-29T02:32:00,mnr,8.27
2022-08-29T02:33:00,mnr,7.81
2022-08-29T02:34:00,mnr,8.51
2022-08-29T02:35:00,mnr,8.56
2022-08-29T02:36:00,mnr,8.46
2022-08-29T02:37:00,mnr,8.42
2022-08-29T02:38:00,mnr,8.65
2022-08-29T02:39:00,mnr,8.46
2022-08-29T02:40:00,mnr,8.55
2022-08-29T02:41:00,mnr,8.53
2022-08-29T02:42:00,mnr,8.56
2022-08-29T02:43:00,mnr,8.47
2022-08-29T02:44:00,mnr,8.46
2022-08-29T02:45:00,mnr,8.37
2022-08-29T02:46:00,mnr,7.96
2022-08-29T02:47:00,mnr,7.97
2022-08-29T02:48:00,mnr,7.96
2022-08-29T02:49:00,mnr,7.59
2022-08-29T02:50:00,mnr,7.52
2022-08-29T02:51:00,mnr,7.55
2022-08-29T02:52:00,mnr,8.50
2022-08-29T02:53:00,mnr,8.66
2022-08-29T02:54:00,mnr,8.37
2022-08-29T02:55:00,mnr,8.41
2022-08-29T02:56:00,mnr,8.40
2022-08-29T02:57:00,mnr,8.50
2022-08-29T02:58:00,mnr,9.17
2022-08-29T02:59:00,mnr,8.46
2022-08-29T03:00:00,mnr,8.55
2022-08-29T03:01:00,mnr,8.55
2022-08-29T03:02:00,mnr,8.46
2022-08-29T03:03:00,mnr,9.53
2022-08-29T03:04:00,mnr,9.64
2022-08-29T03:05:00,mnr,8.43
2022-08-29T03:06:00,mnr,8.32
2022-08-29T03:07:00,mnr,9.21
2022-08-29T03:08:00,mnr,9.77
2022-08-29T03:09:00,mnr,9.17
2022-08-29T03:10:00,mnr,8.52
2022-08-29T03:11:00,mnr,8.54
2022-08-29T03:12:00,mnr,8.92
2022-08-29T03:13:00,mnr,8.56
2022-08-29T03:14:00,mnr,8.66
2022-08-29T03:15:00,mnr,8.73
2022-08-29T03:16:00,mnr,8.96
2022-08-29T03:17:00,mnr,8.48
2022-08-29T03:18:00,mnr,8.08
2022-08-29T03:19:00,mnr,8.20
2022-08-29T03:20:00,mnr,8.04
2022-08-29T03:21:00,mnr,7.43
2022-08-29T03:22:00,mnr,7.40
2022-08-29T03:23:00,mnr,7.37
2022-08-29T03:24:00,mnr,6.93
2022-08-29T03:25:00,mnr,7.67
2022-08-29T03:26:00,mnr,6.69
2022-08-29T03:27:00,mnr,6.64
2022-08-29T03:28:00,mnr,6.62
2022-08-29T03:29:00,mnr,6.67
2022-08-29T03:30:00,mnr,7.65
2022-08-29T03:31:00,mnr,7.67
2022-08-29T03:32:00,mnr,7.73
2022-08-29T03:33:00,mnr,7.65
2022-08-29T03:34:00,mnr,7.69
2022-08-29T03:35:00,mnr,8.34
2022-08-29T03:36:00,mnr,8.21
2022-08-29T03:37:00,mnr,7.61
2022-08-29T03:38:00,mnr,7.60
2022-08-29T03:39:00,mnr,7.69
2022-08-29T03:40:00,mnr,7.66
2022-08-29T03:41:00,mnr,7.61
2022-08-29T03:42:00,mnr,7.72
2022-08-29T03:43:00,mnr,7.60
2022-08-29T03:44:00,mnr,7.67
2022-08-29T03:45:00,mnr,7.64
2022-08-29T03:46:00,mnr,7.62
2022-08-29T03:47:00,mnr,7.65
2022-08-29T03:48:00,mnr,7.63
2022-08-29T03:49:00,mnr,7.31
2022-08-29T03:50:00,mnr,7.48
2022-08-29T03:51:00,mnr,7.46
2022-08-29T03:52:00,mnr,7.56
2022-08-29T03:53:00,mnr,7.70
2022-08-29T03:54:00,mnr,7.65
2022-08-29T03:55:00,mnr,7.57
2022-08-29T03:56:00,mnr,7.76
2022-08-29T03:57:00,mnr,7.68
2022-08-29T03:58:00,mnr,7.60
2022-08-29T03:59:00,mnr,7.38
2022-08-29T04:00:00,mnr,7.68
2022-08-29T04:01:00,mnr,8.78
2022-08-29T04:02:00,mnr,8.38
2022-08-29T04:03:00,mnr,8.79
2022-08-29T04:04:00,mnr,8.20
2022-08-29T04:05:00,mnr,8.31
2022-08-29T04:06:00,mnr,9.17
2022-08-29T04:07:00,mnr,9.26
2022-08-29T04:08:00,mnr,9.22
2022-08-29T04:09:00,mnr,9.19
2022-08-29T04:10:00,mnr,9.22
2022-08-29T04:11:00,mnr,9.16
2022-08-29T04:12:00,mnr,9.02
2022-08-29T04:13:00,mnr,8.81
2022-08-29T04:14:00,mnr,8.68
2022-08-29T04:15:00,mnr,8.66
2022-08-29T04:16:00,mnr,8.22
2022-08-29T04:17:00,mnr,8.22
2022-08-29T04:18:00,mnr,9.52
2022-08-29T04:19:00,mnr,8.08
2022-08-29T04:20:00,mnr,7.52
2022-08-29T04:21:00,mnr,7.42
2022-08-29T04:22:00,mnr,7.12
2022-08-29T04:23:00,mnr,7.36
2022-08-29T04:24:00,mnr,7.14
2022-08-29T04:25:00,mnr,7.25
2022-08-29T04:26:00,mnr,7.25
2022-08-29T04:27:00,mnr,7.24
2022-08-29T04:28:00,mnr,7.22
2022-08-29T04:29:00,mnr,7.24
2022-08-29T04:30:00,mnr,7.21
2022-08-29T04:31:00,mnr,7.14
2022-08-29T04:32:00,mnr,7.13
2022-08-29T04:33:00,mnr,7.14
2022-08-29T04:34:00,mnr,7.13
2022-08-29T04:35:00,mnr,7.33
2022-08-29T04:36:00,mnr,7.15
2022-08-29T04:37:00,mnr,7.22
2022-08-29T04:38:00,mnr,7.18
2022-08-29T04:39:00,mnr,7.24
2022-08-29T04:40:00,mnr,6.81
2022-08-29T04:41:00,mnr,6.73
2022-08-29T04:42:00,mnr,6.89
2022-08-29T04:43:00,mnr,6.71
2022-08-29T04:44:00,mnr,6.96
2022-08-29T04:45:00,mnr,6.70
2022-08-29T04:46:00,mnr,6.65
2022-08-29T04:47:00,mnr,7.21
2022-08-29T04:48:00,mnr,6.55
2022-08-29T04:49:00,mnr,6.64
2022-08-29T04:50:00,mnr,6.63
2022-08-29T04:51:00,mnr,6.60
2022-08-29T04:52:00,mnr,6.56
2022-08-29T04:53:00,mnr,6.46
2022-08-29T04:54:00,mnr,6.49
2022-08-29T04:55:00,mnr,6.53
2022-08-29T04:56:00,mnr,6.40
2022-08-29T04:57:00,mnr,6.41
2022-08-29T04:58:00,mnr,6.35
2022-08-29T04:59:00,mnr,7.22
2022-08-29T05:00:00,mnr,7.26
2022-08-29T05:01:00,mnr,6.69
2022-08-29T05:02:00,mnr,8.19
2022-08-29T05:03:00,mnr,9.53
2022-08-29T05:04:00,mnr,9.73
2022-08-29T05:05:00,mnr,9.89
2022-08-29T05:06:00,mnr,10.46
2022-08-29T05:07:00,mnr,9.90
2022-08-29T05:08:00,mnr,9.88
2022-08-29T05:09:00,mnr,9.88
2022-08-29T05:10:00,mnr,9.82
2022-08-29T05:11:00,mnr,10.32
2022-08-29T05:12:00,mnr,9.78
2022-08-29T05:13:00,mnr,9.92
2022-08-29T05:14:00,mnr,10.54
2022-08-29T05:15:00,mnr,9.83
2022-08-29T05:16:00,mnr,9.81
2022-08-29T05:17:00,mnr,9.90
2022-08-29T05:18:00,mnr,9.97
2022-08-29T05:19:00,mnr,9.94
2022-08-29T05:20:00,mnr,9.97
2022-08-29T05:21:00,mnr,9.94
2022-08-29T05:22:00,mnr,10.03
2022-08-29T05:23:00,mnr,9.91
2022-08-29T05:24:00,mnr,9.94
2022-08-29T05:25:00,mnr,9.92
2022-08-29T05:26:00,mnr,10.77
2022-08-29T05:27:00,mnr,9.99
2022-08-29T05:28:00,mnr,9.98
2022-08-29T05:29:00,mnr,10.03
2022-08-29T05:30:00,mnr,10.52
2022-08-29T05:31:00,mnr,10.69
2022-08-29T05:32:00,mnr,10.04
2022-08-29T05:33:00,mnr,10.21
2022-08-29T05:34:00,mnr,10.15
2022-08-29T05:35:00,mnr,10.17
2022-08-29T05:36:00,mnr,10.18
2022-08-29T05:37:00,mnr,10.72
2022-08-29T05:38:00,mnr,10.10
2022-08-29T05:39:00,mnr,10.14
2022-08-29T05:40:00,mnr,10.06
2022-08-29T05:41:00,mnr,9.94
2022-08-29T05:42:00,mnr,9.91
2022-08-29T05:43:00,mnr,9.98
2022-08-29T05:44:00,mnr,9.95
2022-08-29T05:45:00,mnr,9.87
2022-08-29T05:46:00,mnr,10.74
2022-08-29T05:47:00,mnr,11.03
2022-08-29T05:48:00,mnr,11.46
2022-08-29T05:49:00,mnr,10.94
2022-08-29T05:50:00,mnr,10.78
2022-08-29T05:51:00,mnr,10.81
2022-08-29T05:52:00,mnr,10.81
2022-08-29T05:53:00,mnr,10.86
2022-08-29T05:54:00,mnr,11.33
2022-08-29T05:55:00,mnr,11.08
2022-08-29T05:56:00,mnr,10.77
2022-08-29T05:57:00,mnr,10.81
2022-08-29T05:58:00,mnr,10.91
2022-08-29T05:59:00,mnr,10.78
2022-08-29T06:00:00,mnr,10.76
2022-08-29T06:01:00,mnr,10.76
2022-08-29T06:02:00,mnr,10.75
2022-08-29T06:03:00,mnr,11.00
2022-08-29T06:04:00,mnr,10.75
2022-08-29T06:05:00,mnr,10.80
2022-08-29T06:06:00,mnr,10.29
2022-08-29T06:07:00,mnr,10.30
2022-08-29T06:08:00,mnr,10.07
2022-08-29T06:09:00,mnr,9.96
2022-08-29T06:10:00,mnr,10.14
2022-08-29T06:11:00,mnr,10.35
2022-08-29T06:12:00,mnr,10.04
2022-08-29T06:13:00,mnr,9.96
2022-08-29T06:14:00,mnr,9.99
2022-08-29T06:15:00,mnr,9.92
2022-08-29T06:16:00,mnr,9.85
2022-08-29T06:17:00,mnr,9.87
2022-08-29T06:18:00,mnr,9.82
2022-08-29T06:19:00,mnr,9.80
2022-08-29T06:20:00,mnr,9.76
2022-08-29T06:21:00,mnr,9.79
2022-08-29T06:22:00,mnr,9.77
2022-08-29T06:23:00,mnr,9.81
2022-08-29T06:24:00,mnr,10.54
2022-08-29T06:25:00,mnr,9.89
2022-08-29T06:26:00,mnr,9.83
2022-08-29T06:27:00,mnr,9.85
2022-08-29T06:28:00,mnr,9.95
2022-08-29T06:29:00,mnr,9.91
2022-08-29T06:30:00,mnr,9.96
2022-08-29T06:31:00,mnr,10.55
2022-08-29T06:32:00,mnr,9.92
2022-08-29T06:33:00,mnr,9.94
2022-08-29T06:34:00,mnr,9.97
2022-08-29T06:35:00,mnr,9.99
2022-08-29T06:36:00,mnr,9.72
2022-08-29T06:37:00,mnr,9.76
2022-08-29T06:38:00,mnr,9.72
2022-08-29T06:39:00,mnr,10.11
2022-08-29T06:40:00,mnr,9.73
2022-08-29T06:41:00,mnr,9.77
2022-08-29T06:42:00,mnr,9.74
2022-08-29T06:43:00,mnr,9.74
2022-08-29T06:44:00,mnr,10.35
2022-08-29T06:45:00,mnr,9.90
2022-08-29T06:46:00,mnr,9.73
2022-08-29T06:47:00,mnr,9.73
2022-08-29T06:48:00,mnr,9.72
2022-08-29T06:49:00,mnr,9.79
2022-08-29T06:50:00,mnr,9.71
2022-08-29T06:51:00,mnr,9.70
2022-08-29T06:52:00,mnr,9.68
2022-08-29T06:53:00,mnr,9.68
2022-08-29T06:54:00,mnr,9.65
2022-08-29T06:55:00,mnr,9.86
2022-08-29T06:56:00,mnr,9.71
2022-08-29T06:57:00,mnr,9.85
2022-08-29T06:58:00,mnr,9.60
2022-08-29T06:59:00,mnr,9.60
2022-08-29T07:00:00,mnr,9.68
2022-08-29T07:01:00,mnr,9.67
2022-08-29T07:02:00,mnr,9.67
2022-08-29T07:03:00,mnr,9.77
2022-08-29T07:04:00,mnr,9.71
2022-08-29T07:05:00,mnr,11.41
2022-08-29T07:06:00,mnr,11.53
2022-08-29T07:07:00,mnr,12.87
2022-08-29T07:08:00,mnr,12.77
2022-08-29T07:09:00,mnr,11.54
2022-08-29T07:10:00,mnr,11.43
2022-08-29T07:11:00,mnr,11.62
2022-08-29T07:12:00,mnr,14.82
2022-08-29T07:13:00,mnr,12.49
2022-08-29T07:14:00,mnr,12.26
2022-08-29T07:15:00,mnr,12.29
2022-08-29T07:16:00,mnr,12.00
2022-08-29T07:17:00,mnr,11.96
2022-08-29T07:18:00,mnr,12.11
2022-08-29T07:19:00,mnr,12.18
2022-08-29T07:20:00,mnr,12.19
2022-08-29T07:21:00,mnr,10.91
2022-08-29T07:22:00,mnr,10.80
2022-08-29T07:23:00,mnr,11.74
2022-08-29T07:24:00,mnr,12.33
2022-08-29T07:25:00,mnr,11.79
2022-08-29T07:26:00,mnr,11.78
2022-08-29T07:27:00,mnr,12.74
2022-08-29T07:28:00,mnr,10.05
2022-08-29T07:29:00,mnr,9.89
2022-08-29T07:30:00,mnr,9.87
2022-08-29T07:31:00,mnr,9.87
2022-08-29T07:32:00,mnr,9.84
2022-08-29T07:33:00,mnr,10.03
2022-08-29T07:34:00,mnr,10.75
2022-08-29T07:35:00,mnr,11.37
2022-08-29T07:36:00,mnr,11.93
2022-08-29T07:37:00,mnr,11.90
2022-08-29T07:38:00,mnr,11.90
2022-08-29T07:39:00,mnr,11.84
2022-08-29T07:40:00,mnr,12.57
2022-08-29T07:41:00,mnr,11.83
2022-08-29T07:42:00,mnr,11.94
2022-08-29T07:43:00,mnr,12.36
2022-08-29T07:44:00,mnr,12.54
2022-08-29T07:45:00,mnr,11.82
2022-08-29T07:46:00,mnr,12.79
2022-08-29T07:47:00,mnr,11.80
2022-08-29T07:48:00,mnr,11.21
2022-08-29T07:49:00,mnr,11.13
2022-08-29T07:50:00,mnr,10.83
2022-08-29T07:51:00,mnr,11.34
2022-08-29T07:52:00,mnr,11.53
2022-08-29T07:53:00,mnr,10.98
2022-08-29T07:54:00,mnr,13.97
2022-08-29T07:55:00,mnr,13.94
2022-08-29T07:56:00,mnr,13.99
2022-08-29T07:57:00,mnr,13.98
2022-08-29T07:58:00,mnr,14.16
2022-08-29T07:59:00,mnr,14.66
2022-08-29T08:00:00,mnr,11.92
2022-08-29T08:01:00,mnr,13.09
2022-08-29T08:02:00,mnr,14.20
2022-08-29T08:03:00,mnr,21.09
2022-08-29T08:04:00,mnr,13.52
2022-08-29T08:05:00,mnr,13.57
2022-08-29T08:06:00,mnr,13.56
2022-08-29T08:07:00,mnr,13.67
2022-08-29T08:08:00,mnr,13.77
2022-08-29T08:09:00,mnr,14.49
2022-08-29T08:10:00,mnr,13.69
2022-08-29T08:11:00,mnr,13.86
2022-08-29T08:12:00,mnr,13.78
2022-08-29T08:13:00,mnr,13.81
2022-08-29T08:14:00,mnr,13.79
2022-08-29T08:15:00,mnr,14.19
2022-08-29T08:16:00,mnr,14.51
2022-08-29T08:17:00,mnr,14.00
2022-08-29T08:18:00,mnr,13.09
2022-08-29T08:19:00,mnr,13.81
2022-08-29T08:20:00,mnr,13.86
2022-08-29T08:21:00,mnr,13.72
2022-08-29T08:22:00,mnr,13.69
2022-08-29T08:23:00,mnr,14.03
2022-08-29T08:24:00,mnr,14.13
2022-08-29T08:25:00,mnr,13.87
2022-08-29T08:26:00,mnr,13.90
2022-08-29T08:27:00,mnr,13.94
2022-08-29T08:28:00,mnr,13.59
2022-08-29T08:29:00,mnr,13.55
2022-08-29T08:30:00,mnr,14.23
2022-08-29T08:31:00,mnr,13.43
2022-08-29T08:32:00,mnr,13.08
2022-08-29T08:33:00,mnr,13.20
2022-08-29T08:34:00,mnr,13.33
2022-08-29T08:35:00,mnr,16.11
2022-08-29T08:36:00,mnr,14.52
2022-08-29T08:37:00,mnr,14.39
2022-08-29T08:38:00,mnr,14.41
2022-08-29T08:39:00,mnr,16.09
2022-08-29T08:40:00,mnr,15.84
2022-08-29T08:41:00,mnr,15.32
2022-08-29T08:42:00,mnr,15.31
2022-08-29T08:43:00,mnr,15.42
2022-08-29T08:44:00,mnr,15.26
2022-08-29T08:45:00,mnr,15.54
2022-08-29T08:46:00,mnr,15.33
2022-08-29T08:47:00,mnr,15.30
2022-08-29T08:48:00,mnr,16.06
2022-08-29T08:49:00,mnr,15.58
2022-08-29T08:50:00,mnr,15.34
2022-08-29T08:51:00,mnr,15.35
2022-08-29T08:52:00,mnr,15.40
2022-08-29T08:53:00,mnr,15.36
2022-08-29T08:54:00,mnr,15.70
2022-08-29T08:55:00,mnr,15.63
2022-08-29T08:56:00,mnr,15.53
2022-08-29T08:57:00,mnr,15.46
2022-08-29T08:58:00,mnr,15.48
2022-08-29T08:59:00,mnr,16.06
2022-08-29T09:00:00,mnr,17.71
2022-08-29T09:01:00,mnr,15.66
2022-08-29T09:02:00,mnr,15.58
2022-08-29T09:03:00,mnr,16.73
2022-08-29T09:04:00,mnr,16.08
2022-08-29T09:05:00,mnr,14.04
2022-08-29T09:06:00,mnr,13.98
2022-08-29T09:07:00,mnr,14.00
2022-08-29T09:08:00,mnr,14.00
2022-08-29T09:09:00,mnr,13.99
2022-08-29T09:10:00,mnr,13.99
2022-08-29T09:11:00,mnr,13.96
2022-08-29T09:12:00,mnr,14.55
2022-08-29T09:13:00,mnr,15.33
2022-08-29T09:14:00,mnr,14.75
2022-08-29T09:15:00,mnr,14.71
2022-08-29T09:16:00,mnr,15.19
2022-08-29T09:17:00,mnr,14.74
2022-08-29T09:18:00,mnr,14.73
2022-08-29T09:19:00,mnr,14.13
2022-08-29T09:20:00,mnr,18.80
2022-08-29T09:21:00,mnr,14.71
2022-08-29T09:22:00,mnr,14.79
2022-08-29T09:23:00,mnr,14.80
2022-08-29T09:24:00,mnr,14.23
2022-08-29T09:25:00,mnr,14.04
2022-08-29T09:26:00,mnr,14.09
2022-08-29T09:27:00,mnr,13.94
2022-08-29T09:28:00,mnr,13.87
2022-08-29T09:29:00,mnr,14.58
2022-08-29T09:30:00,mnr,13.84
2022-08-29T09:31:00,mnr,13.20
2022-08-29T09:32:00,mnr,13.09
2022-08-29T09:33:00,mnr,13.21
2022-08-29T09:34:00,mnr,13.54
2022-08-29T09:35:00,mnr,12.80
2022-08-29T09:36:00,mnr,12.89
2022-08-29T09:37:00,mnr,12.87
2022-08-29T09:38:00,mnr,14.84
2022-08-29T09:39:00,mnr,14.03
2022-08-29T09:40:00,mnr,13.97
2022-08-29T09:41:00,mnr,14.00
2022-08-29T09:42:00,mnr,14.91
2022-08-29T09:43:00,mnr,14.91
2022-08-29T09:44:00,mnr,15.49
2022-08-29T09:45:00,mnr,15.31
2022-08-29T09:46:00,mnr,13.26
2022-08-29T09:47:00,mnr,13.27
2022-08-29T09:48:00,mnr,13.89
2022-08-29T09:49:00,mnr,12.85
2022-08-29T09:50:00,mnr,12.97
2022-08-29T09:51:00,mnr,12.91
2022-08-29T09:52:00,mnr,12.98
2022-08-29T09:53:00,mnr,13.04
2022-08-29T09:54:00,mnr,13.08
2022-08-29T09:55:00,mnr,13.32
2022-08-29T09:56:00,mnr,14.02
2022-08-29T09:57:00,mnr,14.10
2022-08-29T09:58:00,mnr,13.99
2022-08-29T09:59:00,mnr,14.89
2022-08-29T10:00:00,mnr,14.95
2022-08-29T10:01:00,mnr,13.98
2022-08-29T10:02:00,mnr,13.79
2022-08-29T10:03:00,mnr,14.47
2022-08-29T10:04:00,mnr,13.91
2022-08-29T10:05:00,mnr,13.88
2022-08-29T10:06:00,mnr,13.89
2022-08-29T10:07:00,mnr,13.83
2022-08-29T10:08:00,mnr,14.24
2022-08-29T10:09:00,mnr,14.51
2022-08-29T10:10:00,mnr,14.60
2022-08-29T10:11:00,mnr,13.98
2022-08-29T10:12:00,mnr,13.92
2022-08-29T10:13:00,mnr,14.68
2022-08-29T10:14:00,mnr,14.07
2022-08-29T10:15:00,mnr,13.76
2022-08-29T10:16:00,mnr,14.39
2022-08-29T10:17:00,mnr,13.97
2022-08-29T10:18:00,mnr,13.86
2022-08-29T10:19:00,mnr,13.89
2022-08-29T10:20:00,mnr,17.26
2022-08-29T10:21:00,mnr,15.02
2022-08-29T10:22:00,mnr,16.17
2022-08-29T10:23:00,mnr,14.97
2022-08-29T10:24:00,mnr,15.67
2022-08-29T10:25:00,mnr,14.60
2022-08-29T10:26:00,mnr,15.29
2022-08-29T10:27:00,mnr,14.89
2022-08-29T10:28:00,mnr,14.91
2022-08-29T10:29:00,mnr,16.03
2022-08-29T10:30:00,mnr,14.26
2022-08-29T10:31:00,mnr,14.34
2022-08-29T10:32:00,mnr,14.29
2022-08-29T10:33:00,mnr,14.09
2022-08-29T10:34:00,mnr,14.14
2022-08-29T10:35:00,mnr,14.19
2022-08-29T10:36:00,mnr,14.23
2022-08-29T10:37:00,mnr,14.26
2022-08-29T10:38:00,mnr,14.32
2022-08-29T10:39:00,mnr,14.34
2022-08-29T10:40:00,mnr,15.40
2022-08-29T10:41:00,mnr,13.03
2022-08-29T10:42:00,mnr,13.28
2022-08-29T10:43:00,mnr,14.14
2022-08-29T10:44:00,mnr,13.31
2022-08-29T10:45:00,mnr,13.38
2022-08-29T10:46:00,mnr,13.37
2022-08-29T10:47:00,mnr,13.75
2022-08-29T10:48:00,mnr,13.35
2022-08-29T10:49:00,mnr,13.35
2022-08-29T10:50:00,mnr,14.21
2022-08-29T10:51:00,mnr,13.33
2022-08-29T10:52:00,mnr,13.41
2022-08-29T10:53:00,mnr,13.27
2022-08-29T10:54:00,mnr,12.77
2022-08-29T10:55:00,mnr,12.74
2022-08-29T10:56:00,mnr,12.74
2022-08-29T10:57:00,mnr,12.82
2022-08-29T10:58:00,mnr,12.84
2022-08-29T10:59:00,mnr,12.10
2022-08-29T11:00:00,mnr,12.03
2022-08-29T11:01:00,mnr,12.00
2022-08-29T11:02:00,mnr,11.52
2022-08-29T11:03:00,mnr,10.96
2022-08-29T11:04:00,mnr,12.05
2022-08-29T11:05:00,mnr,11.82
2022-08-29T11:06:00,mnr,11.88
2022-08-29T11:07:00,mnr,13.32
2022-08-29T11:08:00,mnr,12.99
2022-08-29T11:09:00,mnr,12.73
2022-08-29T11:10:00,mnr,13.27
2022-08-29T11:11:00,mnr,12.81
2022-08-29T11:12:00,mnr,16.30
2022-08-29T11:13:00,mnr,16.38
2022-08-29T11:14:00,mnr,15.23
2022-08-29T11:15:00,mnr,15.36
2022-08-29T11:16:00,mnr,15.44
2022-08-29T11:17:00,mnr,15.64
2022-08-29T11:18:00,mnr,15.35
2022-08-29T11:19:00,mnr,16.16
2022-08-29T11:20:00,mnr,15.69
2022-08-29T11:21:00,mnr,14.30
2022-08-29T11:22:00,mnr,15.00
2022-08-29T11:23:00,mnr,14.37
2022-08-29T11:24:00,mnr,14.31
2022-08-29T11:25:00,mnr,14.22
2022-08-29T11:26:00,mnr,14.44
2022-08-29T11:27:00,mnr,14.41
2022-08-29T11:28:00,mnr,14.48
2022-08-29T11:29:00,mnr,16.42
2022-08-29T11:30:00,mnr,15.77
2022-08-29T11:31:00,mnr,15.78
2022-08-29T11:32:00,mnr,16.74
2022-08-29T11:33:00,mnr,16.81
2022-08-29T11:34:00,mnr,16.29
2022-08-29T11:35:00,mnr,15.56
2022-08-29T11:36:00,mnr,15.74
2022-08-29T11:37:00,mnr,17.36
2022-08-29T11:38:00,mnr,17.54
2022-08-29T11:39:00,mnr,17.62
2022-08-29T11:40:00,mnr,16.22
2022-08-29T11:41:00,mnr,16.31
2022-08-29T11:42:00,mnr,16.56
2022-08-29T11:43:00,mnr,17.85
2022-08-29T11:44:00,mnr,15.59
2022-08-29T11:45:00,mnr,15.89
2022-08-29T11:46:00,mnr,15.82
2022-08-29T11:47:00,mnr,15.95
2022-08-29T11:48:00,mnr,15.90
2022-08-29T11:49:00,mnr,15.92
2022-08-29T11:50:00,mnr,18.77
2022-08-29T11:51:00,mnr,17.89
2022-08-29T11:52:00,mnr,18.38
2022-08-29T11:53:00,mnr,17.50
2022-08-29T11:54:00,mnr,17.64
2022-08-29T11:55:00,mnr,17.93
2022-08-29T11:56:00,mnr,17.88
2022-08-29T11:57:00,mnr,18.75
2022-08-29T11:58:00,mnr,18.23
2022-08-29T11:59:00,mnr,19.16
2022-08-29T12:00:00,mnr,18.63
2022-08-29T12:01:00,mnr,18.74
2022-08-29T12:02:00,mnr,18.72
2022-08-29T12:03:00,mnr,19.13
2022-08-29T12:04:00,mnr,18.69
2022-08-29T12:05:00,mnr,19.00
2022-08-29T12:06:00,mnr,18.81
2022-08-29T12:07:00,mnr,18.79
2022-08-29T12:08:00,mnr,18.76
2022-08-29T12:09:00,mnr,18.75
2022-08-29T12:10:00,mnr,18.79
2022-08-29T12:11:00,mnr,18.82
2022-08-29T12:12:00,mnr,19.21
2022-08-29T12:13:00,mnr,18.92
2022-08-29T12:14:00,mnr,18.83
2022-08-29T12:15:00,mnr,18.74
2022-08-29T12:16:00,mnr,18.72
2022-08-29T12:17:00,mnr,19.53
2022-08-29T12:18:00,mnr,18.71
2022-08-29T12:19:00,mnr,18.68
2022-08-29T12:20:00,mnr,18.74
2022-08-29T12:21:00,mnr,18.65
2022-08-29T12:22:00,mnr,18.91
2022-08-29T12:23:00,mnr,18.56
2022-08-29T12:24:00,mnr,17.78
2022-08-29T12:25:00,mnr,17.72
2022-08-29T12:26:00,mnr,18.80
2022-08-29T12:27:00,mnr,20.85
2022-08-29T12:28:00,mnr,23.72
2022-08-29T12:29:00,mnr,23.70
2022-08-29T12:30:00,mnr,24.26
2022-08-29T12:31:00,mnr,24.27
2022-08-29T12:32:00,mnr,25.25
2022-08-29T12:33:00,mnr,26.64
2022-08-29T12:34:00,mnr,27.40
2022-08-29T12:35:00,mnr,25.74
2022-08-29T12:36:00,mnr,17.48
2022-08-29T12:37:00,mnr,17.51
2022-08-29T12:38:00,mnr,17.36
2022-08-29T12:39:00,mnr,17.26
2022-08-29T12:40:00,mnr,17.58
2022-08-29T12:41:00,mnr,18.49
2022-08-29T12:42:00,mnr,17.34
2022-08-29T12:43:00,mnr,17.50
2022-08-29T12:44:00,mnr,18.34
2022-08-29T12:45:00,mnr,17.75
2022-08-29T12:46:00,mnr,17.40
2022-08-29T12:47:00,mnr,17.62
2022-08-29T12:48:00,mnr,17.38
2022-08-29T12:49:00,mnr,17.23
2022-08-29T12:50:00,mnr,17.30
2022-08-29T12:51:00,mnr,17.05
2022-08-29T12:52:00,mnr,17.51
2022-08-29T12:53:00,mnr,17.79
2022-08-29T12:54:00,mnr,20.10
2022-08-29T12:55:00,mnr,20.61
2022-08-29T12:56:00,mnr,22.36
2022-08-29T12:57:00,mnr,23.36
2022-08-29T12:58:00,mnr,24.68
2022-08-29T12:59:00,mnr,26.11
2022-08-29T13:00:00,mnr,26.16
2022-08-29T13:01:00,mnr,17.90
2022-08-29T13:02:00,mnr,17.43
2022-08-29T13:03:00,mnr,17.53
2022-08-29T13:04:00,mnr,18.08
2022-08-29T13:05:00,mnr,18.15
2022-08-29T13:06:00,mnr,17.99
2022-08-29T13:07:00,mnr,17.88
2022-08-29T13:08:00,mnr,17.80
2022-08-29T13:09:00,mnr,17.48
2022-08-29T13:10:00,mnr,17.41
2022-08-29T13:11:00,mnr,17.97
2022-08-29T13:12:00,mnr,17.44
2022-08-29T13:13:00,mnr,17.61
2022-08-29T13:14:00,mnr,16.99
2022-08-29T13:15:00,mnr,17.00
2022-08-29T13:16:00,mnr,17.66
2022-08-29T13:17:00,mnr,17.09
2022-08-29T13:18:00,mnr,17.16
2022-08-29T13:19:00,mnr,16.81
2022-08-29T13:20:00,mnr,16.72
2022-08-29T13:21:00,mnr,16.82
2022-08-29T13:22:00,mnr,16.73
2022-08-29T13:23:00,mnr,16.60
2022-08-29T13:24:00,mnr,14.64
2022-08-29T13:25:00,mnr,13.94
2022-08-29T13:26:00,mnr,13.98
2022-08-29T13:27:00,mnr,15.38
2022-08-29T13:28:00,mnr,17.72
2022-08-29T13:29:00,mnr,19.12
2022-08-29T13:30:00,mnr,17.48